Hourly Data Report for September 15, 2016

SHEARWATER RCS
NOVA SCOTIA

44°37'47.000" N
63°30'48.000" W
24.00 m
8205092
71264
AAW

Download Data

Hourly Data (September 2016)
Hourly Data Report for September 15, 2016
TIME Temp Definition
°C
Dew Point Definition
°C
Rel Hum Definition
%
Wind Dir Definition
10's deg

Wind Spd Definition
km/h
Visibility Definition
km
Stn Press Definition
kPa
Hmdx Definition


Wind Chill Definition


Weather Definition


00:00 14.2 12.2 88 35 23   101.03     LegendNANA
01:00 13.3 11.6 89 34 19   101.09     LegendNANA
02:00 12.9 10.9 88 34 18   101.23     LegendNANA
03:00 12.1 9.7 85 35 15   101.28     LegendNANA
04:00 11.5 9.2 86 33 19   101.35     LegendNANA
05:00 11.2 8.4 83 34 20   101.43     LegendNANA
06:00 11.1 8.3 83 33 18   101.50     LegendNANA
07:00 11.6 8.2 79 34 18   101.55     LegendNANA
08:00 12.7 7.3 69 34 22   101.63     LegendNANA
09:00 13.8 7.0 64 34 21   101.64     LegendNANA
10:00 14.8 6.3 57 35 21   101.74     LegendNANA
11:00 14.5 5.3 54 33 23   101.74     LegendNANA
12:00 15.5 5.3 51 33 19   101.77     LegendNANA
13:00 15.9 4.9 48 35 23   101.78     LegendNANA
14:00 16.4 5.4 48 33 16   101.78     LegendNANA
15:00 16.0 5.0 48 35 19   101.78     LegendNANA
16:00 16.8 4.3 44 35 16   101.81     LegendNANA
17:00 15.3 5.1 51 36 14   101.85     LegendNANA
18:00 15.1 4.6 50 34 11   101.91     LegendNANA
19:00 13.1 5.7 61 35 8   101.99     LegendNANA
20:00 11.9 6.1 68 34 6   102.10     LegendNANA
21:00 10.7 5.9 72 34 6   102.16     LegendNANA
22:00 10.9 6.1 72 36 5   102.22     LegendNANA
23:00 8.3 5.8 84   0   102.24     LegendNANA

Notes on Data Quality.

Legend

  • E = Estimated
  • M = Missing
  • NA = Not Available*
  • [empty] = Indicates an unobserved value
Date modified: